TITAN 3C TRANSTAGE DEB, 1680

Orbit data source: Space-Track

TITAN 3C TRANSTAGE DEB, 1680 is space debris in LEO originally from a launch on Fri, 15 Oct 1965 UTC launched from the Air Force Eastern Test Range (AFETR). Debris objects in space refer to the collection of defunct objects orbiting the Earth. Examples of debris include non-operational satellites, rocket bodies, and fragments generated from explosions, collisions, or faulty payload assembly.

Loading next visibility...
Identifier
1680, 1965-082AT
Orbit
LEO
Last TLE update
17 hours ago
Origin
Manufacturer
Unknown
Mission
Spacecraft
Bus & Motor
Unknown
Mass
Unknown
Launch date (UTC)
1965-10-15 (60 years ago)
Launch vehicle
Unknown
Launch site
Air Force Eastern Test Range (AFETR)
Object type
Payload
Rocket body
Debris
Shape & HBR
Unknown
Radar Cross Section
2.100 m², Large (>1 m²)

Expand to show TLE details & history

TLE from 17 hours ago
0 TITAN 3C TRANSTAGE DEB
1  1680U 65082AT  25109.19278328  .00000699  00000-0  12054-3 0  9992
2  1680  32.2542 162.2204 0020716   1.0795 358.9895 14.65303229172653
Epoch: 2025-04-19T04:37Z
Definitive object data (Epoch: 2025-04-19T04:37:36.475Z)
Latitude
-0.00003°
Longitude
-114.72113°
Altitude
660.155 km
Speed
7.537 km/s
True Right ascension
10h 48m 52s
True Declination
0° 00' 00"
Sunlit
Object was in full shadow at TLE epoch
Visualization TLE readout
Latitude
4.23394°
Longitude
54.34274°
Altitude
688.386 km
Speed
7.507 km/s
Apparent Right ascension
19h 56m 58s
Apparent Declination
-21° 14' 23"
Sunlit
Object is in daylight
Visualization observer readout
Local Sidereal Time
04:38:00
Azimuth
278.682° WNW
Elevation
-43.98°
Doppler factor
1
Orbital elements
Apogee altitude
694.305 km
Perigee altitude
665.063 km
Semi-major axis
7,057.821 km
Eccentricity
0.0020716
Inclination
32.2542°
RAAN
162.2204°
Arg. of periapsis
1.0795°
True anomaly
358.9853°
Mean anomaly
358.9895°
Eccentric anomaly
358.9874°
Mean motion
3.66047 °/min
BSTAR
0.00012054
Orbital period
98.35 mins
Loading maneuver chart data...
Loading SW <> Apogee altitude chart data...

TITAN 3C TRANSTAGE DEB Visibility forecast

Observer location: undefined°, undefined°

Span
Click to sort rows by Start time (UTC) header in descending order
Start Az.
Max El. time (UTC)
Max El. Az.
Max El.
End time (UTC)
End Az.
6 mins2025-04-20 07:01:30.207Z199.109° SSW2025-04-20 07:04:30.207Z156.862° SSE17.837°2025-04-20 07:07:30.207Z117.426° SE
6 mins2025-04-20 08:45:30.207Z219.724° SW2025-04-20 08:47:30.207Z181.963° SSW27.543°2025-04-20 08:51:30.207Z116.115° SE
7 mins2025-04-20 10:28:30.207Z239.249° WSW2025-04-20 10:31:30.207Z187.667° SSW26.158°2025-04-20 10:35:30.207Z130.569° SE
4 mins2025-04-20 12:13:30.207Z222.085° SW2025-04-20 12:14:30.207Z208.499° SW14.661°2025-04-20 12:17:30.207Z169.945° S
|